Back to catalog

STARLINK-36557

AliveCommunicationsVLEO
NORAD 67500·PAYLOAD·🇺🇸 United States

Launched Jan 18, 2026 from Cape Canaveral Space Force Station

Loading…

Next Passes (next 24 hours)

TLE

FreshSource: CelesTrak SupGP

Epoch: Sep 14, 2026, 15:49 UTC

1 67500C 26012H   26257.65951389  .00047130  00000+0  17074-2 0  2579
2 67500  43.0015 327.2379 0001483 274.6020  24.5908 15.27548018    13

Track STARLINK-36557 in real time with AllMySat

Download on the App Store